This demonstration page uses our WeatherBlox Daily Observations layout. Learn more.

Left ArrowRight Arrow

Hourly Observations for October 5, 2016

Temp ( °F °C ) Dew Point ( °F °C ) Humidity (%) Winds ( mph kmh ) Pressure ( in mb ) Visibility ( mi km ) Precip ( " mm )
12:53 am 00:53 Clear 64 17.8 37 2.8 37 37 WNW 8 13 29.72 1007 10 16 0.00 0.00
1:53 am 01:53 Clear 66 18.9 38 3.3 36 36 S 10 17 29.73 1007 10 16 0.00 0.00
2:53 am 02:53 Clear 59 15 40 4.4 49 49 W 7 11 29.75 1008 10 16 0.00 0.00
3:53 am 03:53 Clear 59 15 42 5.6 54 54 WNW 9 15 29.75 1008 10 16 0.00 0.00
4:53 am 04:53 Clear 57 13.9 42 5.6 58 58 NE 5 7 29.75 1008 10 16 0.00 0.00
5:53 am 05:53 Clear 54 12.2 42 5.6 64 64 NE 3 6 29.78 1008 10 16 0.00 0.00
6:53 am 06:53 Clear 53 11.7 42 5.6 66 66 N 3 6 29.79 1009 10 16 0.00 0.00
7:53 am 07:53 Sunny 50 10 42 5.6 74 74 N 5 7 29.84 1010 10 16 0.00 0.00
8:53 am 08:53 Sunny 57 13.9 44 6.7 62 62 Calm 29.85 1011 10 16 0.00 0.00
9:53 am 09:53 Sunny 71 21.7 44 6.7 38 38 Calm 29.84 1011 10 16 0.00 0.00
10:53 am 10:53 Sunny 78 25.6 38 3.3 24 24 SW 6 9 29.84 1011 10 16 0.00 0.00
11:53 am 11:53 Sunny 80 26.7 41 5 25 25 W 7 11 29.83 1010 10 16 0.00 0.00
12:53 pm 12:53 Sunny 85 29.4 37 2.8 18 18 NW 6 9 29.82 1010 10 16 0.00 0.00
1:53 pm 13:53 Sunny 88 31.1 33 0.6 14 14 WNW 9 15 29.78 1009 10 16 0.00 0.00
2:53 pm 14:53 Sunny 89 31.7 34 1.1 14 14 SSW 13 20 29.76 1008 10 16 0.00 0.00
3:53 pm 15:53 Sunny 90 32.2 35 1.7 14 14 WSW 13 20 29.74 1007 10 16 0.00 0.00
4:53 pm 16:53 Sunny 90 32.2 36 2.2 15 15 SW 13 20 29.73 1007 10 16 0.00 0.00
5:53 pm 17:53 Sunny 89 31.7 38 3.3 16 16 SW 13 20 29.74 1007 10 16 0.00 0.00
6:53 pm 18:53 Sunny 87 30.6 40 4.4 19 19 SW 8 13 29.74 1007 10 16 0.00 0.00
7:53 pm 19:53 Clear 80 26.7 42 5.6 26 26 SSW 7 11 29.76 1008 10 16 0.00 0.00
8:53 pm 20:53 Clear 74 23.3 41 5 31 31 SE 8 13 29.77 1008 10 16 0.00 0.00
9:53 pm 21:53 Clear 73 22.8 41 5 32 32 SSE 10 17 29.77 1008 10 16 0.00 0.00
10:53 pm 22:53 Clear 71 21.7 42 5.6 35 35 SSE 10 17 29.77 1008 10 16 0.00 0.00
11:53 pm 23:53 Clear 71 21.7 50 10 47 47 SE 9 15 29.78 1008 10 16 0.00 0.00

Powered by AerisWeather